When you browse on this site, cookies collect data to enhance your experience and personalize the content and advertising you see.
Visit our Privacy Policy to learn more. By continuing to use the site, you agree to this use of cookies and data.
  • In Romania
  • List of Countries
  • For 7 days
  • Water Temperature
  • Satellite Maps
  • Weather Map
  • Weather Widgets
  • user-avatar
    Login

    Hourly Weather Ertil

    Today, 17 November, Saturday

    Time Temperature Precipitation Wind Pressure Humidity
    00:00 -5°C° 0 mm 3 mps 766 mmHg 29%
    01:00 -6°C° 0 mm 3 mps 766 mmHg 29%
    02:00 -6°C° 0 mm 3 mps 766 mmHg 29%
    03:00 -5°C° 0 mm 2 mps 766 mmHg 28%
    04:00 -5°C° 0 mm 2 mps 766 mmHg 28%
    05:00 -5°C° 0 mm 2 mps 765 mmHg 28%
    06:00 -5°C° 0 mm 2 mps 765 mmHg 27%
    07:00 -5°C° 0 mm 2 mps 765 mmHg 27%
    08:00 -3°C° 0 mm 1 mps 765 mmHg 26%
    09:00 -2°C° 0 mm 1 mps 765 mmHg 24%
    10:00 -1°C° 0 mm 1 mps 765 mmHg 22%
    11:00 0°C° 0 mm 1 mps 764 mmHg 20%
    12:00 +1°C° 0 mm 1 mps 764 mmHg 18%
    13:00 +1°C° 0 mm 1 mps 763 mmHg 19%
    14:00 +1°C° 0 mm 1 mps 763 mmHg 21%
    15:00 +1°C° 0 mm 1 mps 762 mmHg 22%
    16:00 +1°C° 0 mm 1 mps 762 mmHg 23%
    17:00 0°C° 0 mm 1 mps 761 mmHg 24%
    18:00 -1°C° 0 mm 1 mps 761 mmHg 24%
    19:00 -1°C° 0 mm 1 mps 760 mmHg 24%
    20:00 -3°C° 0 mm 2 mps 760 mmHg 24%
    21:00 -3°C° 0 mm 2 mps 759 mmHg 24%
    22:00 -4°C° 0 mm 2 mps 759 mmHg 24%
    23:00 -4°C° 0 mm 2 mps 758 mmHg 24%

    Tomorrow, 18 November, Sunday

    Time Temperature Precipitation Wind Pressure Humidity
    00:00 -5°C° 0 mm 3 mps 758 mmHg 24%
    01:00 -5°C° 0 mm 3 mps 757 mmHg 24%
    02:00 -5°C° 0 mm 3 mps 757 mmHg 24%
    03:00 -5°C° 0 mm 3 mps 756 mmHg 24%
    04:00 -5°C° 0 mm 3 mps 755 mmHg 25%
    05:00 -5°C° 0 mm 3 mps 755 mmHg 25%
    06:00 -6°C° 0 mm 3 mps 754 mmHg 25%
    07:00 -5°C° 0 mm 3 mps 754 mmHg 25%
    08:00 -5°C° 0 mm 3 mps 754 mmHg 24%
    09:00 -5°C° 0 mm 3 mps 754 mmHg 24%
    10:00 -4°C° 0 mm 3 mps 754 mmHg 23%
    11:00 -1°C° 0 mm 3 mps 754 mmHg 22%
    12:00 -1°C° 0 mm 4 mps 754 mmHg 21%
    13:00 0°C° 0 mm 3 mps 753 mmHg 23%
    14:00 0°C° 0 mm 3 mps 753 mmHg 25%
    15:00 +1°C° 0 mm 2 mps 753 mmHg 27%
    16:00 -1°C° 0 mm 2 mps 753 mmHg 29%
    17:00 -2°C° 0 mm 2 mps 753 mmHg 32%
    18:00 -3°C° 0 mm 2 mps 753 mmHg 34%
    19:00 -3°C° 0 mm 2 mps 753 mmHg 35%
    20:00 -3°C° 0 mm 2 mps 754 mmHg 36%
    21:00 -3°C° 0 mm 2 mps 754 mmHg 37%
    22:00 -4°C° 0 mm 2 mps 754 mmHg 38%
    23:00 -4°C° 0 mm 2 mps 754 mmHg 38%

    Day after tomorrow, 19 November, Monday

    Time Temperature Precipitation Wind Pressure Humidity
    00:00 -2°C° 0 mm 1 mps 754 mmHg 39%
    01:00 -2°C° 0 mm 1 mps 754 mmHg 39%
    02:00 -2°C° 0 mm 1 mps 754 mmHg 40%
    03:00 -2°C° 0 mm 1 mps 754 mmHg 40%
    04:00 -3°C° 0 mm 1 mps 755 mmHg 41%
    05:00 -3°C° 0 mm 1 mps 755 mmHg 41%
    06:00 -3°C° 0 mm 1 mps 755 mmHg 42%
    07:00 -4°C° 0 mm 0 mps 755 mmHg 41%
    08:00 -3°C° 0 mm 0 mps 756 mmHg 41%
    09:00 -3°C° 0 mm 0 mps 756 mmHg 40%
    10:00 -2°C° 0 mm 0 mps 756 mmHg 37%
    11:00 0°C° 0 mm 1 mps 757 mmHg 35%
    12:00 +1°C° 0 mm 1 mps 757 mmHg 32%
    13:00 +1°C° 0 mm 1 mps 757 mmHg 33%
    14:00 +1°C° 0 mm 1 mps 757 mmHg 34%
    15:00 +1°C° 0 mm 1 mps 757 mmHg 35%
    16:00 0°C° 0 mm 1 mps 757 mmHg 38%
    17:00 -2°C° 0 mm 2 mps 757 mmHg 40%
    18:00 -3°C° 0 mm 2 mps 757 mmHg 42%
    19:00 -3°C° 0 mm 2 mps 757 mmHg 43%
    20:00 -3°C° 0 mm 2 mps 757 mmHg 44%
    21:00 -4°C° 0 mm 2 mps 757 mmHg 44%
    22:00 -4°C° 0 mm 2 mps 757 mmHg 45%
    23:00 -4°C° 0 mm 2 mps 757 mmHg 45%

    20 November, Tuesday

    Time Temperature Precipitation Wind Pressure Humidity
    00:00 -4°C° 0 mm 2 mps 757 mmHg 45%
    01:00 -4°C° 0 mm 2 mps 757 mmHg 46%
    02:00 -4°C° 0 mm 2 mps 757 mmHg 46%
    03:00 -4°C° 0 mm 2 mps 757 mmHg 47%
    04:00 -4°C° 0 mm 2 mps 757 mmHg 48%
    05:00 -4°C° 0 mm 2 mps 756 mmHg 49%
    06:00 -4°C° 0 mm 2 mps 756 mmHg 50%
    07:00 -4°C° 0 mm 2 mps 756 mmHg 50%
    08:00 -5°C° 0 mm 3 mps 756 mmHg 51%
    09:00 -5°C° 0 mm 3 mps 756 mmHg 51%
    10:00 -4°C° 0 mm 3 mps 756 mmHg 49%
    11:00 -2°C° 0 mm 3 mps 756 mmHg 47%
    12:00 -1°C° 0 mm 3 mps 756 mmHg 46%
    13:00 -1°C° 0 mm 3 mps 755 mmHg 49%
    14:00 -1°C° 0 mm 3 mps 755 mmHg 52%
    15:00 -1°C° 0 mm 3 mps 755 mmHg 55%
    16:00 -2°C° 0 mm 3 mps 755 mmHg 63%
    17:00 -4°C° 0 mm 3 mps 754 mmHg 70%
    18:00 -4°C° 0 mm 3 mps 754 mmHg 77%
    19:00 -4°C° 0 mm 3 mps 754 mmHg 81%
    20:00 -5°C° 0 mm 3 mps 754 mmHg 84%
    21:00 -4°C° 0 mm 2 mps 754 mmHg 87%
    22:00 -4°C° 0 mm 2 mps 754 mmHg 88%
    23:00 -4°C° 0 mm 2 mps 754 mmHg 90%

    21 November, Wednesday

    Time Temperature Precipitation Wind Pressure Humidity
    00:00 -4°C° 0 mm 2 mps 754 mmHg 91%
    01:00 -4°C° 0 mm 2 mps 754 mmHg 91%
    02:00 -4°C° 0 mm 2 mps 754 mmHg 92%
    03:00 -4°C° 0 mm 2 mps 754 mmHg 92%
    04:00 -4°C° 0 mm 2 mps 753 mmHg 92%
    05:00 -4°C° 0 mm 2 mps 753 mmHg 91%
    06:00 -4°C° 0 mm 2 mps 753 mmHg 91%
    07:00 -4°C° 0 mm 2 mps 753 mmHg 89%
    08:00 -4°C° 0 mm 2 mps 753 mmHg 87%
    09:00 -4°C° 0 mm 2 mps 753 mmHg 85%
    10:00 -3°C° 0 mm 2 mps 753 mmHg 78%
    11:00 -2°C° 0 mm 3 mps 753 mmHg 71%
    12:00 -1°C° 0 mm 3 mps 753 mmHg 64%
    13:00 -1°C° 0 mm 3 mps 752 mmHg 65%
    14:00 -1°C° 0 mm 3 mps 752 mmHg 65%
    15:00 -1°C° 0 mm 3 mps 752 mmHg 65%
    16:00 -2°C° 0 mm 3 mps 752 mmHg 68%
    17:00 -2°C° 0 mm 2 mps 752 mmHg 72%
    18:00 -2°C° 0 mm 2 mps 751 mmHg 75%
    19:00 -3°C° 0 mm 2 mps 751 mmHg 77%
    20:00 -3°C° 0 mm 2 mps 751 mmHg 79%
    21:00 -3°C° 0 mm 2 mps 751 mmHg 81%
    22:00 -4°C° 0 mm 3 mps 751 mmHg 82%
    23:00 -5°C° 0 mm 3 mps 751 mmHg 84%

    22 November, Thursday

    Time Temperature Precipitation Wind Pressure Humidity
    00:00 -5°C° 0 mm 3 mps 751 mmHg 86%
    01:00 -5°C° 0 mm 3 mps 751 mmHg 86%
    02:00 -5°C° 0 mm 3 mps 751 mmHg 87%
    03:00 -5°C° 0 mm 3 mps 750 mmHg 87%
    04:00 -5°C° 0 mm 3 mps 750 mmHg 86%
    05:00 -5°C° 0 mm 3 mps 750 mmHg 86%
    06:00 -4°C° 0 mm 3 mps 750 mmHg 85%
    07:00 -4°C° 0 mm 3 mps 750 mmHg 84%
    08:00 -4°C° 0 mm 4 mps 751 mmHg 83%
    09:00 -4°C° 0 mm 4 mps 751 mmHg 83%
    10:00 -4°C° 0 mm 4 mps 751 mmHg 75%
    11:00 -4°C° 0 mm 4 mps 750 mmHg 68%
    12:00 -3°C° 0 mm 4 mps 750 mmHg 61%
    13:00 -3°C° 0 mm 4 mps 750 mmHg 61%
    14:00 -4°C° 0 mm 5 mps 750 mmHg 61%
    15:00 -4°C° 0 mm 5 mps 750 mmHg 62%
    16:00 -3°C° 0 mm 4 mps 750 mmHg 65%
    17:00 -4°C° 0 mm 4 mps 750 mmHg 68%
    18:00 -4°C° 0 mm 4 mps 750 mmHg 71%
    19:00 -4°C° 0 mm 4 mps 750 mmHg 73%
    20:00 -5°C° 0 mm 5 mps 750 mmHg 75%
    21:00 -5°C° 0 mm 5 mps 750 mmHg 77%
    22:00 -5°C° 0 mm 5 mps 750 mmHg 77%
    23:00 -5°C° 0 mm 5 mps 750 mmHg 77%
    Show more